Weather History for Kimball, NE

Change the Weather History Date:

Thursday, August 28, 2014

  Actual Average (KSNY) Record (KSNY)
Temperature  
Mean Temperature 58 °F 71 °F  
Max Temperature 63 °F 86 °F 102 °F (2012)
Min Temperature 53 °F 56 °F 36 °F (1964)
Degree Days  
Heating Degree Days 7 1  
Month to date heating degree days 1  
Since 1 June heating degree days 63  
Since 1 July heating degree days 4  
Cooling Degree Days 0 7  
Month to date cooling degree days 246  
Year to date cooling degree days 724  
Since 1 June cooling degree days 702  
Growing Degree Days 8 (Base 50)    
Moisture  
Dew Point 54 °F    
Average Humidity 85    
Maximum Humidity 96    
Minimum Humidity 68    
Precipitation  
Precipitation 0.12 in 0.07 in 0.92 in (1980)
Month to date precipitation 2.06  
Year to date precipitation 14.96  
Sea Level Pressure  
Sea Level Pressure 30.08 in    
Wind  
Wind Speed 8 mph (WNW)    
Max Wind Speed 20 mph    
Max Gust Speed 25 mph    
Visibility 10 miles    
Events Rain , Thunderstorm    
T = Trace of Precipitation, MM = Missing Value Source: NWS Daily Summary

Daily Weather History Graph

Daily Weather History Graph

Search for Another Location

Airport:

Trip Planner

Search our weather history database for the weather conditions in past years. The results will help you decide how hot, cold, wet, or windy it might be!

Date:

Astronomy

Aug. 28, 2014 Rise Set
Actual Time 7:17 AM CDT 8:33 PM CDT
Civil Twilight 6:48 AM CDT 9:02 PM CDT
Nautical Twilight 6:14 AM CDT 9:36 PM CDT
Astronomical Twilight 5:38 AM CDT 10:12 PM CDT
Moon 10:13 AM CDT (8/28) 9:56 PM CDT (8/28)
Length of Visible Light 14h 13m
Length of Day
13h 16m
Waxing Crescent, 9% of the Moon is Illuminated
Aug 28
Waxing Crescent
Sep 2
First Quarter
Sep 8
Full
Sep 15
Last Quarter
Sep 24
New

Hourly Weather History & Observations

Time (CDT) Temp. Dew Point Humidity Pressure Visibility Wind Dir Wind Speed Gust Speed Precip Events Conditions
12:15 AM 59.0 °F 57.2 °F 94% 30.12 in 10.0 mi Calm Calm - N/A   Scattered Clouds
12:35 AM 58.6 °F 57.4 °F 96% 30.13 in 10.0 mi West 4.6 mph - N/A   Scattered Clouds
12:55 AM 58.6 °F 57.2 °F 95% 30.15 in 10.0 mi WSW 4.6 mph - N/A   Mostly Cloudy
1:15 AM 58.6 °F 57.2 °F 95% 30.14 in 10.0 mi Calm Calm - N/A   Overcast
1:35 AM 58.5 °F 57.0 °F 95% 30.11 in 10.0 mi Calm Calm - N/A   Mostly Cloudy
1:55 AM 58.1 °F 57.0 °F 96% 30.11 in 10.0 mi SW 4.6 mph - N/A   Scattered Clouds
2:15 AM 59.0 °F 57.4 °F 94% 30.11 in 10.0 mi WSW 5.8 mph - N/A   Mostly Cloudy
2:35 AM 58.5 °F 57.2 °F 96% 30.10 in 10.0 mi WSW 6.9 mph - N/A   Scattered Clouds
2:55 AM 58.5 °F 56.7 °F 94% 30.09 in 10.0 mi West 6.9 mph - N/A   Clear
3:15 AM 58.1 °F 55.8 °F 92% 30.08 in 10.0 mi WNW 8.1 mph - N/A   Clear
3:35 AM 57.4 °F 55.2 °F 92% 30.08 in 10.0 mi West 5.8 mph - N/A   Clear
3:55 AM 57.9 °F 55.6 °F 92% 30.08 in 10.0 mi West 11.5 mph - N/A   Clear
4:15 AM 58.1 °F 55.6 °F 91% 30.08 in 10.0 mi West 10.4 mph - N/A   Clear
4:35 AM 58.3 °F 53.1 °F 83% 30.06 in 10.0 mi WNW 10.4 mph - N/A   Clear
4:55 AM 57.7 °F 52.0 °F 81% 30.06 in 10.0 mi WNW 11.5 mph 17.3 mph N/A   Clear
5:15 AM 56.5 °F 51.3 °F 83% 30.06 in 10.0 mi WNW 10.4 mph - N/A   Clear
5:35 AM 56.3 °F 50.5 °F 81% 30.06 in 10.0 mi WNW 10.4 mph - N/A   Clear
5:55 AM 55.6 °F 50.0 °F 81% 30.06 in 10.0 mi WNW 9.2 mph - N/A   Clear
6:15 AM 55.9 °F 49.6 °F 79% 30.06 in 10.0 mi West 10.4 mph - N/A   Clear
6:35 AM 54.7 °F 49.5 °F 83% 30.06 in 10.0 mi West 9.2 mph - N/A   Clear
6:55 AM 54.0 °F 49.1 °F 84% 30.06 in 10.0 mi West 9.2 mph - N/A   Clear
7:15 AM 53.6 °F 49.1 °F 85% 30.06 in 10.0 mi WNW 9.2 mph - N/A   Clear
7:35 AM 53.6 °F 49.1 °F 85% 30.07 in 10.0 mi WNW 9.2 mph - N/A   Clear
7:55 AM 54.3 °F 49.1 °F 83% 30.08 in 10.0 mi West 9.2 mph - N/A   Clear
8:15 AM 56.3 °F 49.3 °F 77% 30.08 in 10.0 mi WNW 11.5 mph - N/A   Clear
8:35 AM 58.1 °F 49.6 °F 73% 30.08 in 10.0 mi WNW 11.5 mph - N/A   Clear
8:55 AM 59.9 °F 50.5 °F 71% 30.08 in 10.0 mi WNW 15.0 mph - N/A   Clear
9:15 AM 62.2 °F 51.4 °F 68% 30.08 in 10.0 mi NW 16.1 mph 20.7 mph N/A   Clear
9:55 AM 63.9 °F 53.2 °F 68% 30.09 in 10.0 mi NW 15.0 mph 23.0 mph N/A   Mostly Cloudy
10:15 AM 63.9 °F 53.8 °F 70% 30.09 in 10.0 mi NW 19.6 mph 25.3 mph N/A   Mostly Cloudy
10:35 AM 62.1 °F 54.0 °F 75% 30.10 in 10.0 mi NW 15.0 mph 20.7 mph N/A   Overcast
10:55 AM 62.4 °F 54.5 °F 75% 30.10 in 10.0 mi NW 17.3 mph 20.7 mph N/A   Overcast
11:15 AM 63.1 °F 54.3 °F 73% 30.10 in 10.0 mi NW 16.1 mph 24.2 mph N/A Thunderstorm Overcast
11:35 AM 63.1 °F 54.7 °F 74% 30.10 in 10.0 mi NW 17.3 mph - N/A Rain Light Rain
11:55 AM 61.0 °F 55.6 °F 82% 30.10 in 10.0 mi NW 13.8 mph 21.9 mph N/A   Drizzle
12:15 PM 62.4 °F 55.0 °F 77% 30.10 in 10.0 mi NW 16.1 mph 20.7 mph N/A Thunderstorm Overcast
12:35 PM 63.1 °F 55.0 °F 75% 30.11 in 10.0 mi NW 18.4 mph 24.2 mph N/A Thunderstorm Overcast
12:55 PM 62.2 °F 54.5 °F 76% 30.11 in 10.0 mi NW 15.0 mph 23.0 mph N/A Thunderstorm Overcast
1:15 PM 59.5 °F 56.5 °F 90% 30.11 in 2.5 mi WNW 13.8 mph 19.6 mph 0.07 in Rain Heavy Rain
1:35 PM 59.0 °F 57.2 °F 94% 30.11 in 5.0 mi NW 15.0 mph 20.7 mph 0.08 in Rain Rain
1:55 PM 58.3 °F 57.0 °F 96% 30.10 in 7.0 mi NW 12.7 mph 18.4 mph 0.09 in Rain Light Rain
2:15 PM 58.3 °F 56.8 °F 95% 30.10 in 7.0 mi NW 16.1 mph - 0.01 in Rain Rain
2:35 PM 58.5 °F 56.7 °F 94% 30.11 in 10.0 mi NW 11.5 mph 16.1 mph 0.01 in   Light Drizzle
2:55 PM 59.0 °F 57.2 °F 94% 30.10 in 10.0 mi NW 11.5 mph - 0.01 in   Drizzle
3:15 PM 59.0 °F 57.0 °F 93% 30.10 in 7.0 mi NW 11.5 mph - N/A Rain Rain
3:35 PM 59.4 °F 57.4 °F 93% 30.09 in 10.0 mi NW 10.4 mph - N/A   Drizzle
3:55 PM 59.4 °F 58.1 °F 96% 30.09 in 10.0 mi NW 8.1 mph - 0.01 in Rain Rain
4:15 PM 59.5 °F 57.9 °F 94% 30.09 in 10.0 mi NW 8.1 mph - 0.01 in Rain Light Rain
4:35 PM 59.9 °F 58.3 °F 94% 30.09 in 10.0 mi WNW 6.9 mph - 0.01 in Rain Light Rain
4:55 PM 60.4 °F 58.6 °F 94% 30.09 in 10.0 mi NW 6.9 mph - 0.01 in Rain Light Rain
5:15 PM 61.2 °F 57.4 °F 87% 30.08 in 10.0 mi NW 5.8 mph - N/A   Overcast
5:35 PM 62.1 °F 57.0 °F 84% 30.09 in 10.0 mi NNW 6.9 mph - N/A   Mostly Cloudy
5:55 PM 62.2 °F 57.0 °F 83% 30.08 in 10.0 mi NW 4.6 mph - N/A   Mostly Cloudy
6:15 PM 62.6 °F 57.4 °F 83% 30.08 in 10.0 mi NW 8.1 mph - N/A   Mostly Cloudy
6:35 PM 62.6 °F 56.7 °F 81% 30.08 in 10.0 mi NW 10.4 mph - N/A   Overcast
6:55 PM 62.6 °F 55.6 °F 78% 30.07 in 10.0 mi NW 10.4 mph - N/A   Mostly Cloudy
7:15 PM 62.6 °F 55.2 °F 77% 30.07 in 10.0 mi NNW 10.4 mph - N/A   Mostly Cloudy
7:35 PM 62.6 °F 54.0 °F 73% 30.07 in 10.0 mi NNW 9.2 mph - N/A   Mostly Cloudy
7:55 PM 62.8 °F 53.8 °F 72% 30.07 in 10.0 mi NNW 9.2 mph - N/A   Scattered Clouds
8:15 PM 61.0 °F 53.8 °F 77% 30.06 in 10.0 mi WNW 4.6 mph - N/A   Clear
8:35 PM 58.6 °F 53.4 °F 83% 30.06 in 10.0 mi WNW 6.9 mph - N/A   Clear
8:55 PM 57.4 °F 53.1 °F 85% 30.06 in 10.0 mi WNW 6.9 mph - N/A   Clear
9:15 PM 56.3 °F 52.7 °F 88% 30.06 in 10.0 mi NW 5.8 mph - N/A   Clear
9:35 PM 56.3 °F 52.0 °F 85% 30.06 in 10.0 mi WNW 8.1 mph - N/A   Clear
9:55 PM 56.3 °F 51.4 °F 84% 30.06 in 10.0 mi West 9.2 mph - N/A   Clear
10:15 PM 55.2 °F 51.8 °F 88% 30.06 in 10.0 mi West 9.2 mph - N/A   Clear
10:35 PM 54.7 °F 51.4 °F 89% 30.06 in 10.0 mi West 8.1 mph - N/A   Scattered Clouds
10:55 PM 54.5 °F 51.3 °F 89% 30.07 in 10.0 mi WSW 6.9 mph - N/A   Scattered Clouds
11:15 PM 54.9 °F 51.6 °F 89% 30.07 in 10.0 mi WSW 8.1 mph - N/A   Mostly Cloudy
11:35 PM 54.5 °F 51.1 °F 88% 30.07 in 10.0 mi WSW 5.8 mph - N/A   Mostly Cloudy
11:55 PM 53.6 °F 50.4 °F 89% 30.07 in 10.0 mi WSW 3.5 mph - N/A   Clear